User: anonymous   Login
Location: Fort Wayne
(41.1310°N, 85.1290°W)
Time: 11:53:22
(UTC-04:00)
Language:

Cosmos 2056 Rocket - Orbit

View from above orbital plane
View from above orbital plane
View from above satellite
View from above satellite

Ground track
Ground track

The orbit data is extracted from the following two-line orbital elements,

1 20433U 90004B   15146.91191514  .00000069  00000-0  32525-4 0  9999
2 20433 074.0359 297.0409 0041888 250.2322 224.7501 14.35838362327228
Epoch (UTC): 26 May 2015 21:53:09
Eccentricity: 0.0041888
inclination: 74.0359°
perigee height: 742 km
apogee height: 802 km
right ascension of ascending node: 297.0409°
argument of perigee: 250.2322°
revolutions per day: 14.35838362
mean anomaly at epoch: 224.7501°
orbit number at epoch: 32722

The dashed part of the orbit path shows where the satellite is in the earth's shadow,  

DLR